Regional Weather Roundup
Issued by NWS

Home | Current Version | Previous Version | Text Only | Print | Product List | Glossary Off
Versions: 1 2 3 4 5 6 7 8 9 10 11 12 13 14 15 16 17 18 19 20 21 22 23 24 25 26 27 28 29 30 31 32 33 34 35 36 37 38 39 40 41 42 43 44 45 46 47 48 49 50

000
ASUS45 KABQ 041610
RWRNM
NEW MEXICO REGIONAL WEATHER ROUNDUP
NATIONAL WEATHER SERVICE ALBUQUERQUE NM
1000 AM MDT SAT JUL 04 2015

NOTE: "FAIR" MEANS FEW OR NO CLOUDS BELOW 12,000 FEET AGL WITH NO
       SIGNIFICANT WEATHER OR OBSTRUCTIONS TO VISION.

      THIS PRODUCT IS RELEASED AS TWO VERSIONS.  ONE VERSION NEAR
      THE TOP OF THE HOUR CONTAINING PRELIMINARY DATA FROM ALBUQUERQUE
      AND OTHER STATIONS.  A FINAL VERSION WITH ADDITIONAL DATA IS
      ISSUED ABOUT 10 MINUTES AFTER THE HOUR.

NMZ501-503-504-510>518-041700-
NORTHWEST PLATEAU/NORTHCENTRAL MOUNTAINS

CITY           SKY/WX    TMP DP  RH WIND       PRES   REMARKS
FARMINGTON     SUNNY     74  54  49 E7        30.16S
LOS ALAMOS     SUNNY     70  55  58 SE6       30.29F
SANTA FE       SUNNY     75  54  47 MISG      30.23S
TAOS           SUNNY     70  48  46 W5        30.30S
ANGEL FIRE     FAIR      65  52  62 W12       30.36F

$$
NMZ402-403-502-505>509-041700-
WESTCENTRAL MOUNTAINS/SOUTHWEST MOUNTAINS

CITY           SKY/WX    TMP DP  RH WIND       PRES   REMARKS
GALLUP         MOSUNNY   76  52  43 E5        30.23F
GRANTS         PTSUNNY   75  55  49 SE6       30.24F
SILVER CITY      N/A     75  57  53 CALM      30.20S

$$
NMZ407-409-411-412-041700-
SOUTHERN DESERTS

CITY           SKY/WX    TMP DP  RH WIND       PRES   REMARKS
LORDSBURG      PTSUNNY   70  59  68 SE3       30.12S
DEMING         PTSUNNY   75  64  68 NW3       30.11S
LAS CRUCES     MOSUNNY   79  62  55 S7        30.12S
HOLLOMAN AFB   SUNNY     80  62  52 SW5       30.08S
ALAMOGORDO     SUNNY     79  59  50 CALM      30.10F
T OR C         SUNNY     80  59  48 S8        30.13S

$$
NMZ519>523-041700-
CENTRAL VALLEYS/CENTRAL HIGHLANDS

CITY           SKY/WX    TMP DP  RH WIND       PRES   REMARKS
ALBUQUERQUE    PTSUNNY   78  56  46 VRB5      30.17F
DOUBLE EAGLE   PTSUNNY   75  57  53 VRB3      30.20F
MORIARTY ARPT    N/A     75  54  49 S3        30.23F
CLINES CORNERS SUNNY     73  55  53 W10       30.26F
BELEN          FAIR      79  56  44 SE8       30.15F
SOCORRO        FAIR      78  59  52 SE13      30.13S

$$
NMZ524>526-539-540-041700-
SOUTHCENTRAL MOUNTAINS

CITY           SKY/WX    TMP DP  RH WIND       PRES   REMARKS
RUIDOSO        NOT AVBL

$$
NMZ527>531-041700-
NORTHEAST HIGHLANDS/NORTHEAST PLAINS

CITY           SKY/WX    TMP DP  RH WIND       PRES   REMARKS
LAS VEGAS      SUNNY     71  57  61 S15       30.24F
RATON          SUNNY     69  58  67 SE6       30.17F
CLAYTON        SUNNY     80  61  52 SW17G25   30.09S

$$
NMZ532>537-041700-
EASTCENTRAL PLAINS

CITY           SKY/WX    TMP DP  RH WIND       PRES   REMARKS
TUCUMCARI      SUNNY     80  62  54 SW9       30.07F
CANNON AFB     SUNNY     76  65  68 W9        30.12S
CLOVIS AIRPORT MOSUNNY   77  63  61 W9          N/A

$$
NMZ028-029-538-041700-
SOUTHEAST PLAINS

CITY           SKY/WX    TMP DP  RH WIND       PRES   REMARKS
ROSWELL        SUNNY     81  63  54 VRB6      30.07F
ARTESIA        SUNNY     81  64  57 S6G12     30.08F
CARLSBAD       SUNNY     79  64  60 SE6       30.06R
HOBBS          MOSUNNY   77  64  65 CALM      30.10F


$$



USA.gov is the U.S. government's official web portal to all federal, state and local government web resources and services.